When you browse on this site, cookies collect data to enhance your experience and personalize the content and advertising you see.
Visit our Privacy Policy to learn more. By continuing to use the site, you agree to this use of cookies and data.
  • In Schweiz
  • Länderverzeichnis
  • Für 7 Tage
  • Wassertemperatur
  • Satellitenkarten
  • Wetterkarte
  • Widgets
  • user-avatar
    Anmelden

    Stündliche Wetter Nagretdinovo

    Heute, 18 November, Sonntag

    Zeit Temperatur Niederschläge Wind Luftdruck Luftfeuchtigkeit
    00:00 -5°C° 0 mm 3 m/S 744 mmHg 86%
    01:00 -5°C° 0 mm 4 m/S 744 mmHg 88%
    02:00 -5°C° 0.1 mm 4 m/S 744 mmHg 87%
    03:00 -5°C° 0.1 mm 4 m/S 744 mmHg 87%
    04:00 -5°C° 0.1 mm 4 m/S 743 mmHg 87%
    05:00 -5°C° 0.1 mm 4 m/S 743 mmHg 84%
    06:00 -5°C° 0.1 mm 4 m/S 743 mmHg 82%
    07:00 -5°C° 0.1 mm 4 m/S 743 mmHg 80%
    08:00 -5°C° 0 mm 4 m/S 743 mmHg 79%
    09:00 -4°C° 0 mm 4 m/S 743 mmHg 78%
    10:00 -4°C° 0 mm 4 m/S 743 mmHg 77%
    11:00 -4°C° 0.1 mm 4 m/S 743 mmHg 77%
    12:00 -4°C° 0.1 mm 4 m/S 743 mmHg 77%
    13:00 -4°C° 0.1 mm 4 m/S 743 mmHg 77%
    14:00 -4°C° 0 mm 4 m/S 743 mmHg 78%
    15:00 -4°C° 0 mm 4 m/S 744 mmHg 78%
    16:00 -4°C° 0 mm 3 m/S 744 mmHg 78%
    17:00 -4°C° 0 mm 3 m/S 744 mmHg 75%
    18:00 -4°C° 0 mm 3 m/S 744 mmHg 72%
    19:00 -5°C° 0 mm 3 m/S 744 mmHg 69%
    20:00 -5°C° 0 mm 3 m/S 744 mmHg 69%
    21:00 -4°C° 0 mm 3 m/S 744 mmHg 68%
    22:00 -4°C° 0 mm 3 m/S 745 mmHg 67%
    23:00 -5°C° 0 mm 3 m/S 745 mmHg 70%

    Morgen, 19 November, Montag

    Zeit Temperatur Niederschläge Wind Luftdruck Luftfeuchtigkeit
    00:00 -5°C° 0 mm 3 m/S 745 mmHg 72%
    01:00 -5°C° 0 mm 3 m/S 745 mmHg 75%
    02:00 -5°C° 0 mm 3 m/S 745 mmHg 77%
    03:00 -5°C° 0 mm 3 m/S 745 mmHg 79%
    04:00 -5°C° 0 mm 3 m/S 745 mmHg 81%
    05:00 -5°C° 0 mm 3 m/S 745 mmHg 82%
    06:00 -5°C° 0 mm 3 m/S 745 mmHg 83%
    07:00 -4°C° 0 mm 2 m/S 746 mmHg 84%
    08:00 -4°C° 0 mm 2 m/S 746 mmHg 85%
    09:00 -3°C° 0 mm 2 m/S 746 mmHg 86%
    10:00 -3°C° 0 mm 2 m/S 746 mmHg 86%
    11:00 -3°C° 0.1 mm 2 m/S 746 mmHg 87%
    12:00 -3°C° 0.1 mm 2 m/S 746 mmHg 88%
    13:00 -3°C° 0.1 mm 2 m/S 746 mmHg 88%
    14:00 -3°C° 0.1 mm 2 m/S 746 mmHg 90%
    15:00 -3°C° 0.1 mm 2 m/S 746 mmHg 92%
    16:00 -3°C° 0.1 mm 2 m/S 746 mmHg 93%
    17:00 -3°C° 0.1 mm 2 m/S 746 mmHg 94%
    18:00 -3°C° 0.1 mm 2 m/S 746 mmHg 95%
    19:00 -3°C° 0.1 mm 2 m/S 746 mmHg 95%
    20:00 -3°C° 0.1 mm 2 m/S 746 mmHg 96%
    21:00 -3°C° 0.1 mm 2 m/S 746 mmHg 96%
    22:00 -3°C° 0.1 mm 2 m/S 745 mmHg 96%
    23:00 -3°C° 0.2 mm 2 m/S 745 mmHg 96%

    übermorgen, 20 November, Dienstag

    Zeit Temperatur Niederschläge Wind Luftdruck Luftfeuchtigkeit
    00:00 -3°C° 0.2 mm 2 m/S 745 mmHg 97%
    01:00 -3°C° 0.2 mm 2 m/S 745 mmHg 97%
    02:00 -3°C° 0.2 mm 2 m/S 745 mmHg 96%
    03:00 -4°C° 0.2 mm 3 m/S 745 mmHg 96%
    04:00 -4°C° 0.2 mm 3 m/S 745 mmHg 95%
    05:00 -4°C° 0.1 mm 3 m/S 745 mmHg 94%
    06:00 -5°C° 0.1 mm 3 m/S 745 mmHg 94%
    07:00 -5°C° 0.1 mm 3 m/S 744 mmHg 93%
    08:00 -5°C° 0.1 mm 3 m/S 744 mmHg 91%
    09:00 -5°C° 0.1 mm 3 m/S 744 mmHg 90%
    10:00 -5°C° 0.1 mm 3 m/S 745 mmHg 89%
    11:00 -5°C° 0 mm 3 m/S 744 mmHg 88%
    12:00 -5°C° 0 mm 3 m/S 744 mmHg 86%
    13:00 -5°C° 0 mm 3 m/S 744 mmHg 84%
    14:00 -5°C° 0 mm 3 m/S 744 mmHg 84%
    15:00 -6°C° 0 mm 3 m/S 744 mmHg 84%
    16:00 -6°C° 0 mm 3 m/S 743 mmHg 83%
    17:00 -6°C° 0 mm 3 m/S 743 mmHg 84%
    18:00 -6°C° 0 mm 3 m/S 743 mmHg 86%
    19:00 -6°C° 0 mm 3 m/S 743 mmHg 87%
    20:00 -6°C° 0.2 mm 3 m/S 742 mmHg 88%
    21:00 -6°C° 0.2 mm 3 m/S 742 mmHg 89%
    22:00 -7°C° 0.2 mm 4 m/S 742 mmHg 90%
    23:00 -7°C° 0.3 mm 4 m/S 741 mmHg 90%

    21 November, Mittwoch

    Zeit Temperatur Niederschläge Wind Luftdruck Luftfeuchtigkeit
    00:00 -7°C° 0.3 mm 4 m/S 741 mmHg 90%
    01:00 -7°C° 0.3 mm 4 m/S 740 mmHg 91%
    02:00 -7°C° 0.3 mm 4 m/S 740 mmHg 91%
    03:00 -7°C° 0.3 mm 4 m/S 740 mmHg 91%
    04:00 -7°C° 0.3 mm 5 m/S 739 mmHg 91%
    05:00 -7°C° 0.2 mm 5 m/S 739 mmHg 91%
    06:00 -7°C° 0.2 mm 5 m/S 738 mmHg 91%
    07:00 -7°C° 0.2 mm 5 m/S 738 mmHg 91%
    08:00 -7°C° 0.1 mm 5 m/S 738 mmHg 91%
    09:00 -7°C° 0.1 mm 5 m/S 738 mmHg 90%
    10:00 -6°C° 0.1 mm 5 m/S 738 mmHg 90%
    11:00 -6°C° 0.2 mm 5 m/S 737 mmHg 90%
    12:00 -6°C° 0.2 mm 5 m/S 737 mmHg 89%
    13:00 -6°C° 0.2 mm 5 m/S 737 mmHg 89%
    14:00 -6°C° 0.4 mm 5 m/S 737 mmHg 90%
    15:00 -6°C° 0.4 mm 5 m/S 737 mmHg 91%
    16:00 -7°C° 0.4 mm 5 m/S 736 mmHg 92%
    17:00 -7°C° 0.2 mm 4 m/S 736 mmHg 91%
    18:00 -7°C° 0.2 mm 4 m/S 736 mmHg 91%
    19:00 -7°C° 0.2 mm 4 m/S 736 mmHg 91%
    20:00 -7°C° 0.1 mm 4 m/S 736 mmHg 91%
    21:00 -7°C° 0.1 mm 4 m/S 736 mmHg 91%
    22:00 -7°C° 0.1 mm 4 m/S 736 mmHg 91%
    23:00 -7°C° 0.1 mm 3 m/S 736 mmHg 91%

    22 November, Donnerstag

    Zeit Temperatur Niederschläge Wind Luftdruck Luftfeuchtigkeit
    00:00 -8°C° 0.1 mm 3 m/S 736 mmHg 90%
    01:00 -9°C° 0.1 mm 3 m/S 736 mmHg 90%
    02:00 -9°C° 0 mm 3 m/S 736 mmHg 91%
    03:00 -9°C° 0 mm 3 m/S 736 mmHg 92%
    04:00 -9°C° 0 mm 3 m/S 736 mmHg 92%
    05:00 -9°C° 0.1 mm 3 m/S 736 mmHg 92%
    06:00 -9°C° 0.1 mm 3 m/S 735 mmHg 93%
    07:00 -9°C° 0.1 mm 3 m/S 735 mmHg 93%
    08:00 -9°C° 0 mm 3 m/S 735 mmHg 92%
    09:00 -9°C° 0 mm 3 m/S 735 mmHg 91%
    10:00 -9°C° 0 mm 3 m/S 734 mmHg 91%
    11:00 -10°C° 0 mm 4 m/S 734 mmHg 89%
    12:00 -9°C° 0 mm 4 m/S 733 mmHg 87%
    13:00 -10°C° 0 mm 5 m/S 732 mmHg 86%
    14:00 -10°C° 0.2 mm 5 m/S 732 mmHg 87%
    15:00 -10°C° 0.2 mm 5 m/S 731 mmHg 88%
    16:00 -10°C° 0.2 mm 6 m/S 731 mmHg 90%
    17:00 -10°C° 0.5 mm 5 m/S 730 mmHg 91%
    18:00 -10°C° 0.5 mm 5 m/S 730 mmHg 92%
    19:00 -10°C° 0.5 mm 5 m/S 729 mmHg 93%
    20:00 -9°C° 0.4 mm 4 m/S 729 mmHg 93%
    21:00 -9°C° 0.4 mm 4 m/S 729 mmHg 94%
    22:00 -8°C° 0.4 mm 3 m/S 728 mmHg 95%
    23:00 -9°C° 0.3 mm 4 m/S 729 mmHg 92%

    23 November, Freitag

    Zeit Temperatur Niederschläge Wind Luftdruck Luftfeuchtigkeit
    00:00 -9°C° 0.3 mm 4 m/S 729 mmHg 89%
    01:00 -10°C° 0.3 mm 4 m/S 729 mmHg 87%
    02:00 -11°C° 0 mm 4 m/S 729 mmHg 87%
    03:00 -12°C° 0 mm 4 m/S 730 mmHg 87%
    04:00 -15°C° 0 mm 4 m/S 730 mmHg 88%
    05:00 -14°C° 0 mm 3 m/S 731 mmHg 90%
    06:00 -15°C° 0 mm 3 m/S 731 mmHg 92%
    07:00 -16°C° 0 mm 3 m/S 732 mmHg 95%
    08:00 -14°C° 0.1 mm 3 m/S 732 mmHg 93%
    09:00 -14°C° 0.1 mm 4 m/S 733 mmHg 91%
    10:00 -12°C° 0.1 mm 4 m/S 734 mmHg 89%
    11:00 -13°C° 0.1 mm 5 m/S 734 mmHg 87%
    12:00 -13°C° 0.1 mm 5 m/S 734 mmHg 84%
    13:00 -13°C° 0.1 mm 5 m/S 735 mmHg 82%
    14:00 -14°C° 0 mm 4 m/S 735 mmHg 83%
    15:00 -15°C° 0 mm 4 m/S 736 mmHg 85%
    16:00 -15°C° 0 mm 3 m/S 736 mmHg 87%
    17:00 -15°C° 0 mm 3 m/S 736 mmHg 87%
    18:00 -15°C° 0 mm 3 m/S 737 mmHg 87%
    19:00 -15°C° 0 mm 3 m/S 737 mmHg 87%
    20:00 -15°C° 0.1 mm 4 m/S 737 mmHg 88%
    21:00 -14°C° 0.1 mm 4 m/S 737 mmHg 89%
    22:00 -13°C° 0.1 mm 5 m/S 737 mmHg 90%
    23:00 -12°C° 0.1 mm 5 m/S 737 mmHg 90%
    Mehr zeigen